{"data":{"norad_id":62966,"intl_designator":"2025-029U","name":"STARLINK-32888","alt_names":[],"object_type":"PAYLOAD","status":"ACTIVE","operator":null,"country":"US","launch_date":"2025-02-11","launch_site_code":"AFWTR","launch_vehicle":null,"mission":null,"orbit_class":"UNKNOWN","rcs_meters":null,"size_class":null,"mass_kg":null,"dimensions":null,"purposes":["comms"],"wikipedia_slug":null,"has_3d_model":false,"image_url":null,"decayed_at":null,"tle_current":{"epoch":"2026-05-24T15:31:02.739936Z","epoch_age_seconds":108881,"freshness":"FRESH","line1":"1 62966U 25029U   26144.64655949  .00024261  00000+0  82843-3 0  9994","line2":"2 62966  53.1601 239.8888 0000407 118.8882 241.2160 15.30205540 72943","mean_motion":15.3020554,"eccentricity":4.07e-5,"inclination_deg":53.1601,"raan_deg":239.8888,"arg_perigee_deg":118.8882,"mean_anomaly_deg":241.216,"bstar":0.00082843,"rev_number":7294,"period_min":94.105005004752,"perigee_km":474.91959727183,"apogee_km":475.47745878381,"semimajor_km":6853.3355280278,"source":"CELESTRAK","updated_at":"2026-05-25T13:38:19.828385Z"}}}